Springfield, CO

2:03 PM MST on December 16, 2017 (GMT -0700)
Springfield

Weather History for KSPD - September, 2013

Change the Weather History Date:

Tuesday, September 10, 2013

  Actual Average Record
Temperature  
Mean Temperature 76 °F -  
Max Temperature 88 °F 83 °F 93 °F (2000)
Min Temperature 63 °F 54 °F 40 °F (2016)
Degree Days  
Heating Degree Days 0 1  
Month to date heating degree days 0 10  
Since 1 July heating degree days 1 17  
Cooling Degree Days 11 5  
Month to date cooling degree days 138 59  
Year to date cooling degree days 1302 960  
Growing Degree Days 25 (Base 50)    
Moisture  
Dew Point 55 °F    
Average Humidity 54    
Maximum Humidity 78    
Minimum Humidity 29    
Precipitation  
Precipitation 0.00 in 0.05 in 0.41 in (2002)
Month to date precipitation 0.00 0.52  
Year to date precipitation 9.74  
Sea Level Pressure  
Sea Level Pressure 29.91 in    
Wind  
Wind Speed 10 mph (SSW)    
Max Wind Speed 28 mph    
Max Gust Speed 33 mph    
T = Trace of Precipitation, MM = Missing Value Source: NWS Daily Summary

Daily Weather History Graph

Daily Weather History Graph

Search for Another Location

Airport or City:

Trip Planner

Search our weather history database for the weather conditions in past years. The results will help you decide how hot, cold, wet, or windy it might be!

Date:

Astronomy

Sep. 10, 2013 Rise Set
Actual Time 6:28 AM MDT 7:05 PM MDT
Civil Twilight 6:02 AM MDT 7:31 PM MDT
Nautical Twilight 5:31 AM MDT 8:02 PM MDT
Astronomical Twilight 4:59 AM MDT 8:34 PM MDT
Moon 11:48 AM MDT (9/10) 10:18 PM MDT (9/10)
Length of Visible Light 13h 29m
Length of Day
12h 36m
Waxing Crescent, 29% of the Moon is Illuminated
Sep 10
Waxing Crescent
Sep 12
First Quarter
Sep 19
Full
Sep 26
Last Quarter
Oct 4
New

Hourly Weather History & Observations

Time (MDT) Temp. Heat Index Dew Point Humidity Pressure Visibility Wind Dir Wind Speed Gust Speed Precip Events Conditions
12:56 AM 73.0 °F - 54.0 °F 51% 29.81 in - SSW 18.4 mph 23.0 mph N/A   Unknown
1:56 AM 71.1 °F - 55.0 °F 57% 29.81 in - SSW 12.7 mph 21.9 mph N/A   Unknown
2:56 AM 69.1 °F - 55.0 °F 61% 29.82 in - South 13.8 mph - N/A   Unknown
3:56 AM 68.0 °F - 55.0 °F 63% 29.81 in - South 15.0 mph - N/A   Unknown
4:56 AM 66.0 °F - 55.0 °F 68% 29.84 in - SW 9.2 mph - N/A   Unknown
5:56 AM 63.0 °F - 55.0 °F 75% 29.86 in - SSW 10.4 mph - N/A   Unknown
6:56 AM 63.0 °F - 55.0 °F 75% 29.90 in - WSW 6.9 mph - N/A   Unknown
7:56 AM 68.0 °F - 55.0 °F 63% 29.93 in - WNW 10.4 mph - N/A   Unknown
8:56 AM 73.0 °F - 55.9 °F 55% 29.94 in - WSW 5.8 mph - N/A   Unknown
9:56 AM 77.0 °F - 55.0 °F 47% 29.94 in - WSW 8.1 mph 17.3 mph N/A   Unknown
10:56 AM 80.1 °F 80.1 °F 55.0 °F 42% 29.94 in - Variable 5.8 mph - N/A   Unknown
11:56 AM 82.0 °F 81.3 °F 54.0 °F 38% 29.92 in - WSW 5.8 mph - N/A   Unknown
12:56 PM 84.9 °F 83.6 °F 55.0 °F 36% 29.91 in - Variable 5.8 mph 18.4 mph N/A   Unknown
1:56 PM 87.1 °F - 51.1 °F 29% 29.89 in - South 17.3 mph 23.0 mph N/A   Unknown
2:56 PM 82.9 °F 82.0 °F 55.0 °F 38% 29.89 in - NW 9.2 mph - N/A   Unknown
3:56 PM 82.9 °F - 52.0 °F 34% 29.88 in - SSE 15.0 mph - N/A   Unknown
4:03 PM 82.4 °F - 51.8 °F 35% 30.07 in - SSE 15.0 mph - N/A   Unknown
4:56 PM 82.9 °F 81.8 °F 53.1 °F 36% 29.88 in - SSE 20.7 mph 26.5 mph N/A   Unknown
5:56 PM 81.0 °F 80.4 °F 53.1 °F 38% 29.91 in - South 17.3 mph - N/A   Unknown
6:56 PM 78.1 °F - 54.0 °F 43% 29.93 in - South 16.1 mph - N/A   Unknown
7:56 PM 73.9 °F - 55.9 °F 53% 29.96 in - South 11.5 mph - N/A   Unknown
8:56 PM 72.0 °F - 55.9 °F 57% 29.97 in - SSE 8.1 mph - N/A   Unknown
9:56 PM 71.1 °F - 57.9 °F 63% 29.98 in - South 8.1 mph - N/A   Unknown
10:56 PM 66.9 °F - 57.0 °F 70% 29.98 in - SSW 3.5 mph - N/A   Unknown
11:56 PM 71.1 °F - 57.9 °F 63% 29.96 in - SSW 4.6 mph - N/A   Unknown